Home   Weather   Pulheim   Past weeks

Flag for Germany Past Weather in Pulheim, North Rhine-Westphalia, Germany — Yesterday and Last 2 Weeks

50 °F


Feels Like: 47 °F
Forecast: 41 / 53 °F
Wind: 7 mph from North

Location: Noervenich

Current Time: Oct 22, 2016 at 1:57:32 PM

Latest Report: Oct 22, 2016 at 12:20 PM

Visibility: N/A

Pressure: 29.95 "Hg

Humidity: 76%

Dew Point: 43 °F

Location of PulheimLocation

Past Weather in Pulheim — Graph


Pulheim Temperature Yesterday

Maximum temperature yesterday: 46 °F (at 3:20 PM)
Minimum temperature yesterday: 45 °F (at 12:20 AM)
Average temperature yesterday: 45 °F

High & Low Weather Summary for the Past Weeks

High68 °F (Oct 16, 3:20 PM)100% (Oct 11, 6:20 AM)30.27 "Hg (Oct 11, 6:20 AM)
Low37 °F (Oct 11, 5:20 AM)48% (Oct 8, 3:20 PM)29.65 "Hg (Oct 15, 2:20 AM)
Average49 °F83%30.05 "Hg
* Reported Oct 7 12:20 PM — Oct 22 12:20 PM, Pulheim, Weather by CustomWeather, © 2016

Note: Actual official high and low records may vary slightly from our data, if they occured in-between our weather recording intervals... More about our weather records


Pulheim Weather History for the Previous 24 Hours

Scroll right to see more
Time TempWeatherWind HumidityBarometerVisibility
12:20 PM
Sat, Oct 22
50 °FCool.7 mph76%29.95 "HgN/A
11:20 AM48 °FCool.6 mph87%29.92 "HgN/A
10:20 AM46 °FCool.7 mph93%29.92 "HgN/A
9:20 AM46 °FCool.9 mph93%29.92 "Hg2 mi
8:20 AM46 °FCool.8 mph93%29.92 "Hg1 mi
7:20 AM46 °FCool.7 mph93%29.89 "Hg4 mi
6:20 AM46 °FCool.8 mph93%29.89 "Hg4 mi
5:20 AM46 °FCool.6 mph93%29.89 "Hg4 mi
4:20 AM46 °FCool.9 mph93%29.89 "Hg4 mi
3:20 AM46 °FCool.7 mph93%29.92 "Hg4 mi
2:20 AM46 °FCool.9 mph93%29.92 "Hg3 mi
1:20 AM46 °FCool.12 mph87%29.92 "Hg4 mi
12:20 AM45 °FQuite cool.6 mph93%29.92 "Hg5 mi
11:20 PM
Fri, Oct 21
46 °FCool.9 mph87%29.95 "Hg5 mi
10:20 PM45 °FQuite cool.8 mph93%29.95 "Hg3 mi
9:20 PM45 °FRain. Passing clouds.9 mph87%29.95 "Hg6 mi
8:20 PM45 °FLight rain. Passing clouds.9 mph87%29.98 "HgN/A
7:20 PM45 °FPartly cloudy.7 mph87%29.98 "HgN/A
6:20 PM45 °FBroken clouds.8 mph87%29.98 "HgN/A
5:20 PM45 °FMostly cloudy.7 mph87%29.98 "HgN/A
4:20 PM45 °FBroken clouds.8 mph81%30.01 "HgN/A
3:20 PM46 °FBroken clouds.7 mph76%30.01 "HgN/A
2:20 PM45 °FPartly sunny.6 mph87%30.01 "Hg6 mi
1:46 PM45 °FPartly sunny.6 mph87%30.01 "Hg5 mi
1:20 PM45 °FBroken clouds.6 mph81%30.01 "Hg5 mi
Weather by CustomWeather, © 2016

See weather overviewHow to use our weather pages